Regional Weather Roundup
Issued by NWS Mobile, AL

Home | Current Version | Previous Version | Text Only | Print | Product List | Glossary On
Versions: 1 2 3 4 5 6 7 8 9 10 11 12 13 14 15 16 17 18 19 20 21 22 23 24 25 26 27 28 29 30 31 32 33 34 35 36 37 38 39 40 41 42 43 44 45 46 47 48 49 50
000
ASUS44 KMOB 171313
RWRMOB
REGIONAL WEATHER ROUNDUP
NATIONAL WEATHER SERVICE MOBILE AL
800 AM CDT TUE OCT 17 2017

NOTE: "FAIR" INDICATES FEW OR NO CLOUDS BELOW 12,000 FEET WITH NO
      SIGNIFICANT WEATHER AND/OR OBSTRUCTIONS TO VISIBILITY.

  * THESE STATIONS ARE PART OF THE UNIVERSITY OF SOUTH ALABAMA
    MESONET AND ARE NOT UNDER NWS OR FAA QUALITY CONTROL.

ALZ061>064-171400-
COASTAL ALABAMA

CITY           SKY/WX    TMP DP  RH WIND       PRES   REMARKS
MOBILE REG APT MOSUNNY   56  50  80 NE12      30.19R
BROOKLEY FIELD SUNNY     59  53  80 N12       30.19R
USA CAMPUS*    NOT AVBL
DOG RIVER*     NOT AVBL


CITY           SKY/WX    TMP DP  RH WIND       PRES   REMARKS
GULF SHORES    SUNNY     55  52  92 NE7       30.16R

$$

ALZ051>060-171400-
INTERIOR SOUTHWEST AND SOUTH CENTRAL ALABAMA

CITY           SKY/WX    TMP DP  RH WIND       PRES   REMARKS
GREENVILLE     NOT AVBL
EVERGREEN      SUNNY     55  49  80 NE6       30.22R
ATMORE*          N/A    N/A N/A N/A NE6       31.51
ANDALUSIA/OPP  SUNNY     60  50  69 NE10      30.20R
ANDALUSIA*       N/A     57  50  77 E8        30.20R
FLORALA APT    SUNNY     58  49  72 NE10      30.22R
FLORALA*         N/A     57  50  77 NW5       30.93R

$$

FLZ001>006-171400-
WESTERN FLORIDA PANHANDLE

CITY           SKY/WX    TMP DP  RH WIND       PRES   REMARKS
PENSACOLA      SUNNY     60  51  72 NE8       30.16R
NAS PENSACOLA  MOSUNNY   61  51  70 NE13G22   30.15R
MILTON         MOSUNNY   56  51  84 VRB6      30.18R
WHTNG S FIELD  MOSUNNY   59  49  69 NE13      30.17R


CITY           SKY/WX    TMP DP  RH WIND       PRES   REMARKS
JAY*             N/A     55  50  82 NE12      30.19R
DUKE FIELD     SUNNY     57  51  81 NE9       30.16R
CRESTVIEW      SUNNY     57  51  80 NE6       30.18R
VALPARAISO     MOSUNNY   61  51  69 NE12      30.15R
DESTIN         SUNNY     65  51  60 NE13G25   30.15R

$$

MSZ076-079-171400-
INTERIOR SOUTHEAST MISSISSIPPI

CITY           SKY/WX    TMP DP  RH WIND       PRES   REMARKS
LEAKESVILLE*     N/A     52  48  87 E3        30.23R
AGRICOLA*      NOT AVBL

$$

MARINE OBSERVATIONS

STATION/POSITION TIME  TEMP    WIND        PRES    WAVE
                       AIR SEA DIR/SP/G            HT/PER
                 (UTC) (F)     (DEG/KT/KT) (MB)    (FT/S)
PASCAGOULA       1248   56      20/  9/ 12 1021.4R
PETIT BOIS ISLND 1248   61      50/ 18/ 22 1021.8R
GRAND BAY        1145   55      20/  6     1022.0R
KATRINA CUT      1200   63      60/ 23     1021.3
CEDAR POINT      1230   62      60/ 17     1020.7R
E DAUPHIN ISLAND 1200   60      40/ 19/ 21 1020.6R
MIDDLE BAY LIGHT 1200   60      40/ 21     1021.0
USCG MOBILE BAY  1248   57 78   20/  8/ 13 1022.1R
STATE DOCKS      1248   59 78              1022.0R
MEAHER PARK      1230   54     350/  4     1021.3R
WEEKS BAY        1145   54                 1021.0R
FORT MORGAN      1248   60      60/ 19/ 24   N/A
12 S ORANGE BCH  1150   66 79   60/ 19/ 23 1019.4R   4/ 6
PENSACOLA BAY    1248   60 79              1021.3R
64 S DAUPHIN ISL 1250   73 82   50/ 16/ 19 1019.3R   6/ 7
67 S FORT MORGAN 1230   72      50/ 16     1018.6R

$$

SELECTED LOCATIONS ACROSS THE REGION

CITY           SKY/WX    TMP DP  RH WIND       PRES   REMARKS
NEW ORLEANS    MOSUNNY   61  52  72 NE13      30.19R
GULFPORT       SUNNY     55  49  80 N8        30.18R
PASCAGOULA AP  MOSUNNY   55  49  80 NE6       30.18R
PASCAGOULA*      N/A     54  50  87 N8          N/A
HATTIESBURG    CLOUDY    52  48  86 N3        30.24R
LAUREL         MOSUNNY   51  46  83 N7        30.24R
MERIDIAN       SUNNY     53  47  79 NE9       30.28R
JACKSON        SUNNY     51  45  79 NE9       30.26S
MONTGOMERY     SUNNY     57  45  64 NE8       30.26R
TROY           SUNNY     55  48  77 NE9       30.24R
ASHFORD*         N/A     57  50  77 E8        30.20R
DOTHAN         SUNNY     59  47  64 E12G18    30.25R
PANAMA CITY    SUNNY     62  51  67 N13       30.14R

$$




USA.gov is the U.S. government's official web portal to all federal, state and local government web resources and services.